STARLINK-36734, 67988

Orbit data source: Space-Track

STARLINK-36734, 67988 is a payload satellite owned by SpaceX/Seattle (US) in LEO that was launched on Fri, 27 Feb 2026 UTC via an FALCON 9 launch vehicle from the Air Force Eastern Test Range (AFETR). Payload-class satellites include a variety of spacecraft equipped with specific instruments for various scientific and technological missions. These include communications satellites like Starlink; space stations such as the ISS; scientific satellites like the Hubble; Earth observation satellites from companies like Planet Labs, Umbra, and HawkEye 360; GPS; miniature CubeSats for education and research; and military/defense satellites.

Loading next visibility...
Identifier
67988, 2026-039C
Orbit
LEO
Country
Flag of USUS
Related business
Manufacturer
SpaceX/Seattle
Mission
Operational Commercial Communications
Bus & Motor
STARLINK V2MO, Unknown motor
Mass
575 kg wet, ~530 kg dry
Launch date (UTC)
2026-02-27 (2 months ago)
Launch vehicle
FALCON 9
Launch site
Air Force Eastern Test Range (AFETR)
Object type
Payload
Rocket body
Debris
Shape & HBR
Box + 2 Pan, 17.7 m
Radar Cross Section
36.964 m²

Expand to show TLE details & history
Last TLE update: 6 hours ago

TLE from 6 hours ago
0 STARLINK-36734
1 67988U 26039C   26112.19993344  .00019719  00000-0  70536-3 0  9993
2 67988  42.9952 163.5847 0001380 214.6419 145.4343 15.28443899  8357
Epoch: 2026-04-22T04:47Z
TLE epoch observation values (Epoch: 2026-04-22T04:47:54.249Z)
Latitude
-0.00002°
Longitude
-118.65614°
Altitude
481.018 km
Speed
7.626 km/s
True Right ascension
10h 54m 20s
True Declination
0° 00' 00"
Sunlit
Object was in full shadow at epoch
Visualization orbit readout
Latitude
Unknown
Longitude
Unknown
Altitude
Unknown
Speed
Unknown
Apparent Right ascension
Unknown
Apparent Declination
Unknown
Sunlit
N/A
Visualization observer readout
Local Sidereal Time
17:57:48
Azimuth
Unknown
Elevation
Unknown
Doppler factor
Unknown
Orbital elements
Apogee altitude
483.357 km
Perigee altitude
481.463 km
Semi-major axis
6,860.547 km
Eccentricity
0.00014
Inclination
42.9952°
RAAN
163.5847°
Arg. of periapsis
214.6419°
True anomaly
145.44327°
Mean anomaly
145.4343°
Eccentric anomaly
145.43879°
Mean motion
3.81949 °/min
Orbital period
94.25 mins
BSTAR
0.00070536
Loading maneuver chart data...
Computing Atmospheric mass density...
Loading historical data...
Loading historical data...
Loading historical data...
Loading historical data...
Loading historical data...
Loading historical data...
Loading historical data...

Documentation

Showing up to 5 results
|